DW3838 Weather Reports


Display with metric or nautical units.
time (UTC)temp
F
wind
direction
speed
MPH
gust
MPH
rain 1hr
in
rain 24hr
in
rain mn
in
humidity
%
barometer
mb
20260509174517 67 142 0.0 0.0 0.00 0.00 0.00 72 1015.8
20260509173015 65 138 0.0 1.0 0.00 0.00 0.00 78 1015.8
20260509171509 62 345 0.0 2.0 0.00 0.00 0.00 80 1015.8
20260509170002 60 151 0.0 0.0 0.00 0.00 0.00 85 1016.0
20260509164558 56 143 0.0 0.0 0.00 0.00 0.00 86 1015.9
20260509163104 57 144 0.0 0.0 0.00 0.00 0.00 92 1015.9
20260509161557 57 92 0.0 0.0 0.00 0.00 0.00 93 1016.1
20260509160052 56 238 0.0 0.0 0.00 0.00 0.00 94 1016.0
20260509154600 55 153 0.0 0.0 0.00 0.00 0.00 94 1016.1
20260509153046 54 169 0.0 0.0 0.00 0.00 0.00 94 1016.0
20260509151547 53 169 0.0 0.0 0.00 0.00 0.00 94 1016.1
20260509150043 52 167 0.0 0.0 0.00 0.00 0.00 94 1016.0
20260509144536 51 157 0.0 0.0 0.00 0.00 0.00 94 1015.8
20260509143043 50 157 0.0 0.0 0.00 0.00 0.00 94 1015.8
20260509141532 49 226 0.0 0.0 0.00 0.00 0.00 94 1015.8
20260509140029 49 226 0.0 0.0 0.00 0.00 0.00 93 1015.8
20260509134526 48 226 0.0 0.0 0.00 0.01 0.00 93 1015.7
20260509133027 48 226 0.0 0.0 0.00 0.01 0.00 93 1015.4
20260509131526 47 226 0.0 0.0 0.00 0.01 0.00 93 1015.5
20260509130029 47 226 0.0 0.0 0.00 0.01 0.00 93 1015.5
20260509124537 47 222 0.0 0.0 0.00 0.01 0.00 93 1015.3
20260509123026 48 222 0.0 0.0 0.00 0.01 0.00 93 1015.3
20260509121535 47 222 0.0 0.0 0.00 0.01 0.00 93 1015.4
20260509120024 47 222 0.0 0.0 0.00 0.01 0.00 92 1015.4
20260509114545 47 222 0.0 0.0 0.00 0.01 0.00 92 1015.4
20260509113022 47 222 0.0 0.0 0.00 0.01 0.00 92 1015.5
20260509111521 47 186 0.0 0.0 0.00 0.01 0.00 92 1015.5
20260509110021 47 186 0.0 0.0 0.00 0.01 0.00 92 1015.5
20260509104521 47 186 0.0 0.0 0.00 0.01 0.00 92 1015.5
20260509103018 47 186 0.0 0.0 0.00 0.01 0.00 92 1015.4
20260509101518 48 186 0.0 0.0 0.00 0.01 0.00 92 1015.4
20260509100017 48 186 0.0 0.0 0.00 0.01 0.00 92 1015.4
20260509094522 48 186 0.0 0.0 0.00 0.01 0.00 91 1015.4
20260509093016 48 186 0.0 0.0 0.00 0.01 0.00 91 1015.3
20260509091514 47 186 0.0 0.0 0.00 0.01 0.00 91 1015.4
20260509090033 47 186 0.0 0.0 0.00 0.01 0.00 91 1015.5
20260509084511 48 186 0.0 0.0 0.00 0.01 0.00 90 1015.6
20260509083025 48 186 0.0 0.0 0.00 0.01 0.00 90 1015.7
20260509081509 48 186 0.0 0.0 0.00 0.01 0.00 90 1015.7
20260509080011 48 186 0.0 0.0 0.00 0.01 0.00 90 1015.7
20260509074513 48 186 0.0 0.0 0.00 0.01 0.00 89 1015.8
20260509073005 48 186 0.0 0.0 0.00 0.01 0.00 89 1015.8
20260509071505 48 186 0.0 0.0 0.00 0.01 0.00 89 1015.9
20260509070101 49 186 0.0 0.0 0.00 0.01 0.00 89 1016.0
20260509064558 49 186 0.0 0.0 0.00 0.01 0.01 89 1016.0
20260509063121 49 186 0.0 0.0 0.00 0.01 0.01 88 1015.9
20260509061601 50 186 0.0 0.0 0.00 0.01 0.01 88 1016.1
20260509060058 50 186 0.0 0.0 0.00 0.01 0.01 88 1016.0
20260509054557 51 186 0.0 0.0 0.00 0.01 0.01 88 1016.1
20260509053056 52 186 0.0 0.0 0.00 0.01 0.01 88 1016.2
20260509051558 53 186 0.0 0.0 0.00 0.01 0.01 87 1016.1
20260509044559 55 186 0.0 0.0 0.00 0.01 0.01 87 1016.1
20260509043058 56 186 0.0 0.0 0.00 0.01 0.01 86 1015.9
20260509041553 57 186 0.0 0.0 0.00 0.01 0.01 86 1015.8
20260509040055 58 186 0.0 0.0 0.00 0.01 0.01 85 1015.7
20260509034601 59 186 0.0 0.0 0.00 0.01 0.01 84 1015.5
20260509033105 60 186 0.0 0.0 0.00 0.01 0.01 82 1015.5
20260509031551 61 186 0.0 0.0 0.00 0.01 0.01 81 1015.5
20260509030050 62 186 0.0 0.0 0.00 0.01 0.01 79 1015.2
20260509024559 63 163 0.0 0.0 0.00 0.01 0.01 78 1015.2
20260509023049 64 163 0.0 0.0 0.00 0.01 0.01 76 1015.2
20260509021550 65 163 0.0 0.0 0.00 0.01 0.01 75 1015.1
20260509020049 65 163 0.0 0.0 0.00 0.01 0.01 74 1015.1
20260509014547 66 184 0.0 0.0 0.00 0.01 0.01 73 1015.1
20260509013050 67 184 0.0 4.0 0.00 0.01 0.01 71 1015.2
20260509011549 68 173 0.0 4.0 0.00 0.01 0.01 70 1015.3
20260509010044 69 190 0.0 2.0 0.00 0.01 0.01 68 1015.3
20260509004554 70 192 1.0 5.0 0.00 0.01 0.01 68 1015.4
20260509003045 71 184 0.0 6.0 0.00 0.01 0.01 67 1015.5
20260509001541 71 180 0.0 3.0 0.00 0.01 0.01 66 1015.6
20260509000044 71 190 0.0 2.0 0.00 0.01 0.01 67 1015.7
20260508234538 70 140 0.0 1.0 0.00 0.01 0.01 67 1015.9
20260508233037 71 128 0.0 2.0 0.00 0.01 0.01 67 1016.0
20260508231540 71 93 0.0 2.0 0.00 0.01 0.01 65 1016.1
20260508230033 71 114 0.0 3.0 0.00 0.01 0.01 64 1016.2
20260508224554 72 104 0.0 2.0 0.00 0.01 0.01 64 1016.4
20260508223030 73 110 0.0 2.0 0.00 0.01 0.01 64 1016.6
20260508221532 73 181 0.0 3.0 0.00 0.01 0.01 65 1016.8
20260508220031 72 207 0.0 3.0 0.00 0.01 0.01 64 1016.9
20260508214533 72 84 0.0 5.0 0.00 0.01 0.01 65 1017.1
20260508213029 72 115 0.0 7.0 0.00 0.01 0.01 67 1017.4
20260508211522 71 215 1.0 6.0 0.00 0.01 0.01 66 1017.5
20260508210019 71 174 0.0 8.0 0.00 0.01 0.01 70 1017.7
20260508204512 70 207 0.0 8.0 0.00 0.01 0.01 71 1017.7
20260508203011 69 97 0.0 6.0 0.00 0.01 0.01 71 1017.9
20260508201507 69 208 0.0 7.0 0.00 0.01 0.01 72 1018.0
20260508200015 68 136 0.0 2.0 0.00 0.01 0.01 74 1018.2
20260508194603 67 234 1.0 7.0 0.00 0.01 0.01 74 1018.4
20260508193104 66 165 0.0 5.0 0.00 0.01 0.01 78 1018.6
20260508191554 65 174 3.0 7.0 0.00 0.01 0.01 77 1018.6
20260508190050 63 53 0.0 3.0 0.00 0.01 0.01 79 1018.8
20260508184548 62 220 0.0 2.0 0.00 0.01 0.01 81 1018.9
20260508183100 61 209 0.0 6.0 0.00 0.01 0.01 84 1019.1
20260508181550 59 175 0.0 5.0 0.00 0.01 0.01 86 1019.3
20260508180036 55 178 1.0 8.0 0.00 0.01 0.01 86 1019.2